Regional Weather Roundup
Issued by NWS

Home | Current Version | Previous Version | Text Only | Print | Product List | Glossary Off
Versions: 1 2 3 4 5 6 7 8 9 10 11 12 13 14 15 16 17 18 19 20 21 22 23 24 25 26 27 28 29 30 31 32 33 34 35 36 37 38 39 40 41 42 43 44 45 46 47 48 49 50

000
ASUS44 KMEG 291000
RWRTN
TENNESSEE HOURLY STATE WEATHER ROUNDUP
NATIONAL WEATHER SERVICE MEMPHIS TN
500 AM CDT SUN MAR 29 2015

TNZ002-004-019-021-049-052-054-088>092-291100-
WEST TENNESSEE

CITY           SKY/WX    TMP DP  RH WIND       PRES   REMARKS
MEMPHIS INTL   CLEAR     37  26  64 SE5       30.26S WCI  33
NWS MEMPHIS      N/A     33 N/A N/A MISG        N/A
JACKSON        CLEAR     29  22  75 CALM      30.28S
DYERSBURG      CLEAR     30  18  59 E6        30.27S WCI  24
PARIS          CLEAR     28  14  54 E8        30.27F WCI  20
LEXINGTON      CLEAR     27  18  69 E3        30.27S
SAVANNAH       CLEAR     27  21  80 CALM      30.29R
$$

TNZ008-025-027-028-033-062-065-066-291100-
NORTH MIDDLE TENNESSEE

CITY           SKY/WX    TMP DP  RH WIND       PRES   REMARKS
NASHVILLE      CLEAR     26  22  84 CALM      30.33S
CLARKSVILLE    CLEAR     24  18  77 SE5       30.31S WCI  18
CROSSVILLE     CLEAR     23  16  74 CALM      30.30S
$$

TNZ061-075-076-078-094-096-097-291100-
SOUTH MIDDLE TENNESSEE

CITY           SKY/WX    TMP DP  RH WIND       PRES   REMARKS
FAYETTEVILLE   CLEAR     27  14  59 E3        30.31R
TULLAHOMA      CLEAR     23  14  68 CALM      30.31S
WINCHESTER     CLEAR     19  19 100 CALM      30.32S
COLUMBIA       CLEAR    N/A N/A N/A CALM      30.30R
SHELBYVILLE    CLEAR     27  18  69 CALM      30.33R
$$

TNZ017-018-042-046-047-291100-
NORTHEAST TENNESSEE

CITY           SKY/WX    TMP DP  RH WIND       PRES   REMARKS
TRI CITIES     CLEAR     20  13  74 N3        30.33S
ELIZABETHTON   SUNNY     18  12  79 CALM      30.33S
$$

TNZ012-013-036-069-073-074-291100-
CENTRAL EAST TENNESSEE

CITY           SKY/WX    TMP DP  RH WIND       PRES   REMARKS
KNOXVILLE      CLEAR     26  20  77 CALM      30.34S
OAK RIDGE      CLEAR     26  20  77 CALM      30.37S
$$

TNZ083-085-099-291100-
SOUTHEAST TENNESSEE

CITY           SKY/WX    TMP DP  RH WIND       PRES   REMARKS
CHATTANOOGA    CLEAR     31  20  63 CALM      30.35R
$$

SKY/WX REPORTED AS FAIR MEANS FEW OR NO CLOUDS BELOW
12 THOUSAND FEET.




USA.gov is the U.S. government's official web portal to all federal, state and local government web resources and services.